Hourly Weather Allmen

Today, 28 February, Sunday

Time Temperature Precipitation Wind Pressure Humidity
00:00 -5°C° 0 mm 2 mps 651 mmHg 89%
01:00 -5°C° 0 mm 2 mps 651 mmHg 89%
02:00 -5°C° 0 mm 2 mps 651 mmHg 88%
03:00 -5°C° 0 mm 2 mps 651 mmHg 87%
04:00 -5°C° 0 mm 2 mps 650 mmHg 86%
05:00 -5°C° 0 mm 2 mps 650 mmHg 86%
06:00 -3°C° 0 mm 1 mps 650 mmHg 86%
07:00 -3°C° 0 mm 1 mps 651 mmHg 86%
08:00 -1°C° 0 mm 1 mps 651 mmHg 83%
09:00 0°C° 0 mm 1 mps 651 mmHg 80%
10:00 +2°C° 0 mm 1 mps 652 mmHg 76%
11:00 +3°C° 0 mm 1 mps 652 mmHg 74%
12:00 +4°C° 0 mm 1 mps 652 mmHg 72%
13:00 +5°C° 0 mm 1 mps 652 mmHg 69%
14:00 +5°C° 0 mm 1 mps 652 mmHg 70%
15:00 +5°C° 0 mm 1 mps 652 mmHg 71%
16:00 +5°C° 0 mm 1 mps 652 mmHg 72%
17:00 +3°C° 0 mm 1 mps 651 mmHg 75%
18:00 +1°C° 0 mm 1 mps 651 mmHg 79%
19:00 0°C° 0 mm 1 mps 651 mmHg 83%
20:00 -1°C° 0 mm 1 mps 651 mmHg 81%
21:00 -1°C° 0 mm 1 mps 651 mmHg 79%
22:00 -2°C° 0 mm 1 mps 651 mmHg 77%
23:00 -2°C° 0 mm 1 mps 651 mmHg 74%

Tomorrow, 1 March, Monday

Time Temperature Precipitation Wind Pressure Humidity
00:00 -2°C° 0 mm 1 mps 651 mmHg 71%
01:00 -3°C° 0 mm 1 mps 651 mmHg 68%
02:00 -3°C° 0 mm 1 mps 650 mmHg 66%
03:00 -3°C° 0 mm 1 mps 650 mmHg 65%
04:00 -3°C° 0 mm 1 mps 650 mmHg 63%
05:00 -3°C° 0 mm 1 mps 650 mmHg 62%
06:00 -4°C° 0 mm 1 mps 650 mmHg 61%
07:00 -4°C° 0 mm 1 mps 650 mmHg 60%
08:00 -2°C° 0 mm 1 mps 650 mmHg 58%
09:00 +1°C° 0 mm 1 mps 651 mmHg 56%
10:00 +3°C° 0 mm 1 mps 651 mmHg 54%
11:00 +4°C° 0 mm 1 mps 652 mmHg 53%
12:00 +5°C° 0 mm 1 mps 652 mmHg 53%
13:00 +6°C° 0 mm 1 mps 653 mmHg 52%
14:00 +6°C° 0 mm 1 mps 652 mmHg 55%
15:00 +6°C° 0 mm 1 mps 652 mmHg 58%
16:00 +6°C° 0 mm 1 mps 652 mmHg 60%
17:00 +4°C° 0 mm 1 mps 651 mmHg 63%
18:00 +2°C° 0 mm 1 mps 651 mmHg 66%
19:00 -2°C° 0 mm 2 mps 651 mmHg 68%
20:00 -3°C° 0 mm 2 mps 651 mmHg 65%
21:00 -3°C° 0 mm 2 mps 651 mmHg 61%
22:00 -4°C° 0 mm 2 mps 651 mmHg 57%
23:00 -4°C° 0 mm 2 mps 651 mmHg 54%

Day after tomorrow, 2 March, Tuesday

Time Temperature Precipitation Wind Pressure Humidity
00:00 -4°C° 0 mm 2 mps 651 mmHg 52%
01:00 -4°C° 0 mm 2 mps 651 mmHg 49%
02:00 -4°C° 0 mm 2 mps 651 mmHg 47%
03:00 -4°C° 0 mm 2 mps 651 mmHg 46%
04:00 -5°C° 0 mm 2 mps 651 mmHg 44%
05:00 -5°C° 0 mm 2 mps 651 mmHg 43%
06:00 -5°C° 0 mm 2 mps 651 mmHg 41%
07:00 -4°C° 0 mm 2 mps 651 mmHg 40%
08:00 0°C° 0 mm 1 mps 651 mmHg 40%
09:00 +2°C° 0 mm 1 mps 652 mmHg 41%
10:00 +5°C° 0 mm 1 mps 653 mmHg 42%
11:00 +6°C° 0 mm 1 mps 653 mmHg 42%
12:00 +7°C° 0 mm 1 mps 654 mmHg 43%
13:00 +8°C° 0 mm 0 mps 654 mmHg 43%
14:00 +8°C° 0 mm 0 mps 654 mmHg 46%
15:00 +7°C° 0 mm 0 mps 653 mmHg 50%
16:00 +7°C° 0 mm 0 mps 653 mmHg 53%
17:00 +6°C° 0 mm 1 mps 653 mmHg 55%
18:00 +4°C° 0 mm 1 mps 652 mmHg 57%
19:00 +2°C° 0 mm 1 mps 652 mmHg 60%
20:00 -1°C° 0 mm 2 mps 652 mmHg 57%
21:00 -1°C° 0 mm 2 mps 652 mmHg 55%
22:00 -2°C° 0 mm 2 mps 652 mmHg 53%
23:00 -2°C° 0 mm 2 mps 652 mmHg 51%

3 March, Wednesday

Time Temperature Precipitation Wind Pressure Humidity
00:00 -2°C° 0 mm 2 mps 652 mmHg 48%
01:00 -2°C° 0 mm 2 mps 652 mmHg 46%
02:00 0°C° 0 mm 1 mps 652 mmHg 44%
03:00 -1°C° 0 mm 1 mps 651 mmHg 43%
04:00 -1°C° 0 mm 1 mps 651 mmHg 41%
05:00 -1°C° 0 mm 1 mps 651 mmHg 41%
06:00 -1°C° 0 mm 1 mps 651 mmHg 40%
07:00 -1°C° 0 mm 1 mps 651 mmHg 40%
08:00 +1°C° 0 mm 1 mps 652 mmHg 41%
09:00 +4°C° 0 mm 1 mps 652 mmHg 42%
10:00 +5°C° 0 mm 0 mps 653 mmHg 44%
11:00 +6°C° 0 mm 0 mps 653 mmHg 43%
12:00 +7°C° 0 mm 0 mps 653 mmHg 43%
13:00 +9°C° 0 mm 0 mps 653 mmHg 42%
14:00 +8°C° 0 mm 0 mps 652 mmHg 44%
15:00 +8°C° 0 mm 0 mps 652 mmHg 47%
16:00 +8°C° 0 mm 0 mps 651 mmHg 49%
17:00 +7°C° 0 mm 1 mps 651 mmHg 54%
18:00 +5°C° 0 mm 1 mps 650 mmHg 58%
19:00 +3°C° 0 mm 1 mps 649 mmHg 62%
20:00 +2°C° 0 mm 1 mps 649 mmHg 61%
21:00 +2°C° 0 mm 1 mps 649 mmHg 59%
22:00 -1°C° 0 mm 2 mps 649 mmHg 58%
23:00 -1°C° 0 mm 2 mps 648 mmHg 57%

4 March, Thursday

Time Temperature Precipitation Wind Pressure Humidity
00:00 +1°C° 0 mm 1 mps 648 mmHg 55%
01:00 +1°C° 0 mm 1 mps 648 mmHg 54%
02:00 +1°C° 0 mm 1 mps 647 mmHg 53%
03:00 0°C° 0 mm 1 mps 647 mmHg 52%
04:00 0°C° 0 mm 1 mps 647 mmHg 51%
05:00 0°C° 0 mm 1 mps 646 mmHg 51%
06:00 0°C° 0 mm 1 mps 646 mmHg 51%
07:00 0°C° 0 mm 1 mps 646 mmHg 51%
08:00 +2°C° 0 mm 1 mps 646 mmHg 52%
09:00 +3°C° 0 mm 1 mps 646 mmHg 52%
10:00 +5°C° 0 mm 1 mps 646 mmHg 53%
11:00 +6°C° 0 mm 1 mps 646 mmHg 55%
12:00 +6°C° 0 mm 1 mps 646 mmHg 57%
13:00 +7°C° 0 mm 1 mps 646 mmHg 60%
14:00 +5°C° 0.2 mm 2 mps 645 mmHg 66%
15:00 +4°C° 0.2 mm 2 mps 645 mmHg 71%
16:00 +4°C° 0.2 mm 2 mps 644 mmHg 77%
17:00 +3°C° 1.1 mm 2 mps 644 mmHg 83%
18:00 +2°C° 1.1 mm 2 mps 644 mmHg 89%
19:00 +1°C° 1.1 mm 2 mps 643 mmHg 95%
20:00 +2°C° 0.3 mm 1 mps 643 mmHg 95%
21:00 +1°C° 0.3 mm 1 mps 643 mmHg 95%
22:00 +1°C° 0.3 mm 1 mps 643 mmHg 94%
23:00 +1°C° 0.4 mm 1 mps 643 mmHg 95%

5 March, Friday

Time Temperature Precipitation Wind Pressure Humidity
00:00 +1°C° 0.4 mm 1 mps 643 mmHg 95%
01:00 +1°C° 0.4 mm 1 mps 643 mmHg 95%
02:00 +1°C° 0.9 mm 1 mps 643 mmHg 96%
03:00 +1°C° 0.9 mm 1 mps 642 mmHg 96%
04:00 +1°C° 0.9 mm 1 mps 642 mmHg 96%
05:00 +1°C° 0.4 mm 1 mps 642 mmHg 96%
06:00 +1°C° 0.4 mm 1 mps 642 mmHg 96%
07:00 +1°C° 0.4 mm 1 mps 642 mmHg 96%
08:00 +1°C° 0.4 mm 1 mps 642 mmHg 96%
09:00 +1°C° 0.4 mm 1 mps 642 mmHg 95%
10:00 +1°C° 0.4 mm 1 mps 642 mmHg 94%
11:00 +1°C° 1.1 mm 1 mps 642 mmHg 95%
12:00 +1°C° 1.1 mm 1 mps 642 mmHg 96%
13:00 0°C° 1.1 mm 1 mps 642 mmHg 97%
14:00 0°C° 0.7 mm 1 mps 642 mmHg 97%
15:00 0°C° 0.7 mm 1 mps 642 mmHg 97%
16:00 0°C° 0.7 mm 1 mps 642 mmHg 97%
17:00 -1°C° 0.6 mm 1 mps 642 mmHg 97%
18:00 -1°C° 0.6 mm 1 mps 642 mmHg 97%
19:00 -3°C° 0.6 mm 2 mps 643 mmHg 97%
20:00 -4°C° 0.3 mm 2 mps 643 mmHg 97%
21:00 -4°C° 0.3 mm 2 mps 643 mmHg 96%
22:00 -5°C° 0.3 mm 2 mps 643 mmHg 96%
23:00 -5°C° 0.1 mm 2 mps 644 mmHg 96%
Show more